Вернуться в каталог

STARLINK-3538

АктивенСвязьVLEO
NORAD 51996·PAYLOAD·🇺🇸 United States

Запущен Mar 9, 2022 с Cape Canaveral Space Force Station

Loading…

Ближайшие Пролёты (ближайшие 24 часа)

TLE

СвежийSource: CelesTrak SupGP

Эпоха: Sep 14, 2026, 20:47 UTC

1 51996C 22025AS  26257.86645833  .00046649  00000+0  14158-2 0  2572
2 51996  53.1576 236.1545 0001473  93.9918 273.6118 15.33519521    13

Отслеживайте STARLINK-3538 в реальном времени с AllMySat

Download on the App Store